Location: Walnut Point State Park
(39.6958°N, 88.0345°W)
Time: 17:14:25
(UTC-06:00)

Amateur Radio Satellites - All Passes

Search period start: 30 January 2015 16:44
Search period end: 31 January 2015 16:44
Location: Walnut Point State Park, 39.6958°N, 88.0345°W

Satellite Date Start Highest point End Downlink Frequencies (MHz)
Time Altitude Azimuth
CUTE-I 30 Jan 16:56:31 17:01:37 50° 72° (ENE) 17:06:48 437.470
PRISM 30 Jan 17:07:19 17:08:24 11° 89° (E) 17:09:45 437.425
AO-7 30 Jan 17:14:10 17:18:46 15° 273° (W) 17:22:46 29.400- 29.500
MOZHAYETS 4 30 Jan 17:19:05 17:23:27 44° 287° (WNW) 17:27:47
JAS-2 30 Jan 17:22:55 17:25:53 14° 270° (W) 17:28:28 435.910
CUBESAT XI-V 30 Jan 17:39:05 17:42:39 22° 93° (E) 17:46:19 437.345
HO-68 30 Jan 17:41:51 17:42:24 10° 51° (NE) 17:43:26 435.675
SO-50 30 Jan 17:55:08 17:59:36 34° 49° (NE) 18:04:07 436.795
YUBILEINY 30 Jan 18:15:43 18:23:04 34° 86° (E) 18:30:39 435.215
Cubesat XI-IV 30 Jan 18:17:40 18:22:18 29° 265° (W) 18:26:51 437.490
STRAND 1 30 Jan 18:20:48 18:25:37 40° 98° (E) 18:30:29 437.568
BRITE-PL 30 Jan 18:30:50 18:34:09 18° 63° (ENE) 18:37:48 437.365/2234.400
CUTE-I 30 Jan 18:38:13 18:42:05 19° 269° (W) 18:45:46 437.470
PRISM 30 Jan 18:40:16 18:44:21 56° 286° (WNW) 18:48:26 437.425
COMPASS 1 30 Jan 18:55:57 18:57:20 12° 65° (ENE) 18:58:57 437.405
CANX-2 30 Jan 19:12:29 19:16:06 28° 71° (ENE) 19:19:48 2200.000
CUBESAT XI-V 30 Jan 19:15:55 19:20:14 36° 288° (WNW) 19:24:31 437.345
AAUSAT CUBESAT 2 30 Jan 19:19:25 19:22:18 19° 68° (ENE) 19:25:18 437.432
HO-68 30 Jan 19:21:53 19:28:47 56° 69° (ENE) 19:35:46 435.675
SRMSAT 30 Jan 19:22:06 19:22:59 10° 178° (S) 19:23:53 437.500
SO-50 30 Jan 19:35:47 19:40:09 31° 246° (WSW) 19:44:24 436.795
CINEMA 3 30 Jan 19:35:50 19:39:28 21° 67° (ENE) 19:43:18 145.822/145.860
CUTE 1.7 + AOD 2 30 Jan 19:35:53 19:39:58 46° 74° (ENE) 19:44:06 437.475
UWE-3 30 Jan 19:40:19 19:41:19 11° 63° (ENE) 19:42:35 435.000/436.395/437.385
Oscar 11 30 Jan 19:44:12 19:47:06 18° 67° (ENE) 19:50:07 145.826/435.025
GOMX 1 30 Jan 19:54:14 19:59:18 75° 76° (ENE) 20:04:44 467.674
DOVE 4 30 Jan 19:59:05 20:04:04 61° 74° (ENE) 20:09:18 437.250
STRAND 1 30 Jan 20:00:30 20:04:38 24° 293° (WNW) 20:08:40 437.568
SEEDS 30 Jan 20:04:06 20:08:22 84° 77° (ENE) 20:12:39 437.485
BRITE-PL 30 Jan 20:07:07 20:12:07 60° 261° (W) 20:17:32 437.365/2234.400
YUBILEINY 30 Jan 20:11:13 20:19:37 51° 285° (WNW) 20:28:01 435.215
ISS 30 Jan 20:13:28 20:16:10 25° 134° (SE) 20:18:56 145.825
UKube-1 30 Jan 20:19:45 20:23:17 26° 69° (ENE) 20:26:55 .
COMPASS 1 30 Jan 20:28:26 20:32:38 61° 260° (W) 20:36:48 437.405
HUMSAT D 30 Jan 20:29:16 20:31:41 15° 66° (ENE) 20:34:16 437.325/437.525
CUBEBUG 2 30 Jan 20:36:08 20:40:41 48° 73° (ENE) 20:45:19 437.445
ZACube-1 30 Jan 20:37:04 20:41:11 34° 71° (ENE) 20:45:23 437.345
DELFI C3 30 Jan 20:39:34 20:43:34 57° 75° (ENE) 20:47:34 145.870
DX 1 30 Jan 20:41:48 20:45:57 46° 73° (ENE) 20:50:10 434.975-435.025
FUNcube-1 30 Jan 20:48:12 20:52:33 44° 73° (ENE) 20:56:57 145.935
CANX-2 30 Jan 20:48:32 20:52:04 24° 266° (W) 20:55:31 2200.000
AAUSAT CUBESAT 2 30 Jan 20:53:52 20:57:46 35° 263° (W) 21:01:38 437.432
HO-68 30 Jan 21:11:00 21:16:56 27° 267° (W) 21:22:42 435.675
CINEMA 3 30 Jan 21:11:39 21:16:23 44° 263° (W) 21:21:13 145.822/145.860
UWE-3 30 Jan 21:12:34 21:17:15 83° 257° (WSW) 21:22:00 435.000/436.395/437.385
CUTE 1.7 + AOD 2 30 Jan 21:13:46 21:16:13 14° 270° (W) 21:18:29 437.475
AISAT 30 Jan 21:14:12 21:18:19 39° 71° (ENE) 21:22:31 437.250
Oscar 11 30 Jan 21:18:55 21:23:02 39° 262° (W) 21:27:07 145.826/435.025
ANTELSAT 30 Jan 21:22:03 21:23:38 12° 88° (E) 21:25:28 437.575/2403.000
ESTCUBE 1 30 Jan 21:23:13 21:26:33 21° 68° (ENE) 21:29:59 437.505/2401.250
50 SAT 30 Jan 21:24:06 21:28:00 43° 73° (ENE) 21:31:57 437.505
TIGRISAT 30 Jan 21:28:16 21:30:29 14° 89° (E) 21:32:53 435.000
GOMX 1 30 Jan 21:35:47 21:38:12 13° 275° (W) 21:40:20 467.674
DOVE 4 30 Jan 21:39:13 21:42:22 16° 272° (W) 21:45:21 437.250
VELOX 1 30 Jan 21:41:14 21:45:39 76° 76° (ENE) 21:50:07 145.980
QB50P1 30 Jan 21:43:35 21:45:08 12° 89° (E) 21:46:55 145.935-145.965
CUBEBUG 1 30 Jan 21:45:06 21:48:57 32° 71° (ENE) 21:52:54 437.445
ISS 30 Jan 21:49:30 21:52:34 35° 330° (NNW) 21:55:38 145.825
UKube-1 30 Jan 21:55:41 21:59:25 27° 265° (W) 22:03:05 .
POLYITAN 1 30 Jan 21:58:21 22:01:18 18° 92° (E) 22:04:22 437.675
TISAT 1 30 Jan 21:58:37 21:59:17 10° 64° (ENE) 22:00:13 437.305
HUMSAT D 30 Jan 22:02:53 22:07:07 49° 261° (W) 22:11:22 437.325/437.525
AIST 1 30 Jan 22:13:30 22:17:53 78° 263° (W) 22:22:15
ZACube-1 30 Jan 22:13:58 22:17:39 23° 267° (W) 22:21:15 437.345
CUBEBUG 2 30 Jan 22:14:30 22:17:42 17° 270° (W) 22:20:45 437.445
POPSAT HIP 1 30 Jan 22:16:50 22:20:36 29° 96° (E) 22:24:22 437.405
DUCHIFAT 1 30 Jan 22:18:28 22:22:14 30° 96° (E) 22:26:02 145.980
DELFI C3 30 Jan 22:18:30 22:19:15 10° 272° (W) 22:19:45 145.870
DX 1 30 Jan 22:19:58 22:22:32 15° 269° (W) 22:24:56 434.975-435.025
UNISAT 6 30 Jan 22:20:24 22:24:47 56° 100° (E) 22:29:02 437.425
FUNcube-1 30 Jan 22:26:00 22:29:10 18° 269° (W) 22:32:10 145.935
AISAT 30 Jan 22:51:59 22:55:10 18° 268° (W) 22:58:12 437.250
NANOSAT C BR1 30 Jan 22:53:05 22:57:24 77° 101° (E) 23:01:41 145.865
ANTELSAT 30 Jan 22:56:34 23:00:57 56° 286° (WNW) 23:05:11 437.575/2403.000
ESTCUBE 1 30 Jan 22:59:08 23:03:15 35° 263° (W) 23:07:22 437.505/2401.250
SPROUT 30 Jan 22:59:19 23:03:29 50° 74° (ENE) 23:07:43 437.525
50 SAT 30 Jan 23:01:00 23:03:23 14° 269° (W) 23:05:36 437.505
TIGRISAT 30 Jan 23:03:21 23:07:39 48° 287° (WNW) 23:11:49 435.000
QB50P2 30 Jan 23:08:27 23:12:46 69° 284° (WNW) 23:17:01 145.880/145.840
SWISSCUBE 30 Jan 23:09:29 23:11:11 12° 63° (ENE) 23:13:08 437.505
QB50P1 30 Jan 23:17:13 23:21:28 55° 286° (WNW) 23:25:39 145.935-145.965
BUGSAT 1 30 Jan 23:19:46 23:24:02 68° 285° (WNW) 23:28:17 437.445
CUBEBUG 1 30 Jan 23:22:04 23:25:26 21° 267° (W) 23:28:44 437.445
BEESAT 30 Jan 23:23:48 23:26:31 16° 65° (ENE) 23:29:27 436.000
ISS 30 Jan 23:28:20 23:29:48 12° 349° (N) 23:31:15 145.825
ITUPSAT 1 30 Jan 23:28:31 23:31:30 17° 65° (ENE) 23:34:40 437.325
TISAT 1 30 Jan 23:30:22 23:34:36 71° 258° (WSW) 23:38:52 437.305
POLYITAN 1 30 Jan 23:33:26 23:37:25 36° 289° (WNW) 23:41:20 437.675
POPSAT HIP 1 30 Jan 23:52:55 23:56:24 23° 291° (WNW) 23:59:46 437.405
DUCHIFAT 1 30 Jan 23:54:33 23:57:59 23° 291° (WNW) 00:01:17 145.980
UNISAT 6 30 Jan 23:58:50 00:01:08 14° 296° (WNW) 00:03:12 437.425
GONETS M04 31 Jan 00:17:44 00:25:49 45° 89° (E) 00:34:00
BEESAT 2 31 Jan 00:32:28 00:34:47 15° 111° (ESE) 00:37:16 435.950
SPROUT 31 Jan 00:37:45 00:39:58 13° 270° (W) 00:41:59 437.525
Oscar 19 31 Jan 00:37:45 00:42:00 26° 94° (E) 00:46:19 437.125/150
STARS 31 Jan 00:43:01 00:44:51 13° 64° (ENE) 00:46:54 437.465
BEESAT 3 31 Jan 00:43:43 00:46:55 23° 113° (ESE) 00:50:15 437.485
SWISSCUBE 31 Jan 00:43:46 00:48:30 75° 258° (WSW) 00:53:17 437.505
O/OREOS (USA 219) 31 Jan 00:50:23 00:54:28 31° 61° (ENE) 00:58:34 437.305
KKS-1 31 Jan 00:51:35 00:55:07 24° 68° (ENE) 00:58:44 437.445
ITAMSAT 1 31 Jan 00:59:06 01:01:42 14° 89° (E) 01:04:36 435.822/435.867
BEESAT 31 Jan 00:59:19 01:03:59 56° 259° (W) 01:08:41 436.000
ITUPSAT 1 31 Jan 01:04:26 01:09:03 50° 260° (W) 01:13:42 437.325
ISS 31 Jan 01:06:07 01:07:25 12° 9° (N) 01:08:44 145.825
AUBIESAT-1 31 Jan 01:15:07 01:17:10 14° 64° (ENE) 01:19:18 437.475
Gurwin Techsat 1B 31 Jan 02:05:08 02:10:11 43° 98° (E) 02:15:15 435.225
BEESAT 2 31 Jan 02:08:39 02:12:39 47° 306° (NW) 02:16:43 435.950
RS-15 31 Jan 02:11:05 02:14:59 13° 99° (E) 02:19:54 29.354- 29.394
AIST 2 31 Jan 02:13:57 02:18:11 80° 120° (ESE) 02:22:30 435.215
GONETS M04 31 Jan 02:14:45 02:22:49 38° 288° (WNW) 02:30:45
M-CUBED/EXP-1 PRIME 31 Jan 02:16:14 02:20:16 90° 77° (ENE) 02:23:59 437.505
STARS 31 Jan 02:16:27 02:20:52 63° 259° (W) 02:25:19 437.465
Oscar 19 31 Jan 02:16:45 02:21:26 35° 291° (WNW) 02:26:02 437.125/150
DANDE 31 Jan 02:18:53 02:24:08 19° 82° (E) 02:29:56 436.750
BEESAT 3 31 Jan 02:21:13 02:24:56 32° 309° (NW) 02:28:41 437.485
KKS-1 31 Jan 02:27:37 02:31:38 31° 264° (W) 02:35:39 437.445
O/OREOS (USA 219) 31 Jan 02:29:59 02:33:46 25° 257° (WSW) 02:37:28 437.305
HORYU 2 31 Jan 02:33:53 02:37:25 23° 94° (E) 02:41:01 437.375
CUSAT 1 31 Jan 02:36:09 02:42:55 30° 87° (E) 02:49:58 437.405
ITAMSAT 1 31 Jan 02:36:35 02:41:47 66° 287° (WNW) 02:46:58 435.822/435.867
ISS 31 Jan 02:41:42 02:44:42 31° 29° (NNE) 02:47:43 145.825
MOZHAYETS 4 31 Jan 02:45:05 02:47:40 15° 66° (ENE) 02:50:26
AUBIESAT-1 31 Jan 02:48:09 02:51:55 40° 255° (WSW) 02:55:25 437.475
PCSat 31 Jan 03:05:35 03:10:33 39° 112° (ESE) 03:15:36 145.827
AO-7 31 Jan 03:19:12 03:26:38 36° 97° (E) 03:34:10 29.400- 29.500
Gurwin Techsat 1B 31 Jan 03:45:44 03:49:56 24° 294° (WNW) 03:54:01 435.225
AIST 2 31 Jan 03:55:12 03:57:25 13° 320° (NW) 03:59:30 435.215
DANDE 31 Jan 03:58:21 04:06:39 88° 99° (E) 04:15:21 436.750
HORYU 2 31 Jan 04:10:14 04:14:08 30° 290° (WNW) 04:17:59 437.375
RS-15 31 Jan 04:14:50 04:25:38 71° 117° (ESE) 04:36:33 29.354- 29.394
CUSAT 1 31 Jan 04:17:19 04:25:32 63° 283° (WNW) 04:33:48 437.405
ISS 31 Jan 04:18:14 04:21:10 29° 225° (SW) 04:24:04 145.825
MOZHAYETS 4 31 Jan 04:20:03 04:24:32 52° 261° (W) 04:29:01
YUBILEINY 31 Jan 04:27:32 04:32:00 15° 58° (ENE) 04:37:03 435.215
JAS-2 31 Jan 04:27:42 04:33:27 62° 101° (E) 04:39:57 435.910
CUBESAT XI-V 31 Jan 04:42:23 04:45:37 20° 67° (ENE) 04:49:00 437.345
PCSat 31 Jan 04:49:20 04:54:05 30° 309° (NW) 04:58:49 145.827
Cubesat XI-IV 31 Jan 04:56:50 04:59:30 14° 89° (E) 05:02:28 437.490
AO-7 31 Jan 05:11:43 05:19:41 50° 295° (WNW) 05:27:31 29.400- 29.500
CUTE-I 31 Jan 05:15:11 05:19:11 22° 92° (E) 05:23:20 437.470
PRISM 31 Jan 05:29:50 05:33:57 86° 256° (WSW) 05:38:05 437.425
STRAND 1 31 Jan 05:35:52 05:40:48 53° 72° (ENE) 05:45:47 437.568
DANDE 31 Jan 05:44:51 05:51:18 22° 298° (WNW) 05:57:27 436.750
CUSAT 1 31 Jan 06:06:08 06:10:21 14° 304° (WNW) 06:13:55 437.405
JAS-2 31 Jan 06:14:08 06:18:17 20° 294° (WNW) 06:22:33 435.910
CUBESAT XI-V 31 Jan 06:18:30 06:22:50 40° 263° (W) 06:27:10 437.345
YUBILEINY 31 Jan 06:21:48 06:30:38 78° 82° (E) 06:39:29 435.215
RS-15 31 Jan 06:29:02 06:38:58 37° 321° (NW) 06:48:55 29.354- 29.394
Cubesat XI-IV 31 Jan 06:34:51 06:40:13 69° 287° (WNW) 06:45:33 437.490
PHONESAT 2.4 31 Jan 06:44:59 06:46:31 12° 146° (SE) 06:48:09 2401.200-2431.200
CUTE-I 31 Jan 06:54:24 06:59:33 46° 289° (WNW) 07:04:39 437.470
AO-7 31 Jan 07:08:50 07:10:41 11° 315° (NW) 07:11:59 29.400- 29.500
VERMONT LUNAR 31 Jan 07:09:52 07:12:56 30° 154° (SSE) 07:16:02 437.305
STRAND 1 31 Jan 07:17:00 07:20:24 17° 269° (W) 07:23:36 437.568
SEEDS 31 Jan 07:51:08 07:53:23 15° 90° (E) 07:55:50 437.485
GOMX 1 31 Jan 07:58:04 08:02:29 26° 92° (E) 08:06:47 467.674
DOVE 4 31 Jan 08:00:46 08:04:16 19° 89° (E) 08:07:49 437.250
SO-50 31 Jan 08:12:19 08:13:31 11° 108° (ESE) 08:15:01 436.795
BRITE-PL 31 Jan 08:13:01 08:18:33 53° 98° (E) 08:23:47 437.365/2234.400
COMPASS 1 31 Jan 08:13:48 08:17:01 22° 93° (E) 08:20:18 437.405
YUBILEINY 31 Jan 08:20:25 08:26:36 21° 279° (W) 08:32:22 435.215
ANTELSAT 31 Jan 08:20:55 08:22:41 12° 64° (ENE) 08:24:41 437.575/2403.000
PHONESAT 2.4 31 Jan 08:21:06 08:24:35 50° 160° (SSE) 08:28:07 2401.200-2431.200
TIGRISAT 31 Jan 08:26:48 08:29:04 14° 65° (ENE) 08:31:33 435.000
CUBEBUG 2 31 Jan 08:31:51 08:32:17 10° 86° (E) 08:33:00 437.445
CANX-2 31 Jan 08:33:57 08:38:09 61° 100° (E) 08:42:18 2200.000
HO-68 31 Jan 08:37:43 08:44:49 63° 102° (ESE) 08:51:55 435.675
AAUSAT CUBESAT 2 31 Jan 08:37:57 08:41:47 36° 97° (E) 08:45:38 437.432
VERMONT LUNAR 31 Jan 08:47:22 08:50:51 89° 170° (S) 08:54:21 437.305
RS-15 31 Jan 08:48:47 08:55:55 18° 355° (N) 09:03:07 29.354- 29.394
POLYITAN 1 31 Jan 08:51:57 08:54:06 14° 65° (ENE) 08:56:27 437.675
BEESAT 2 31 Jan 08:53:23 08:54:20 11° 38° (NE) 08:55:28 435.950
CUTE 1.7 + AOD 2 31 Jan 08:57:46 09:02:01 77° 284° (WNW) 09:06:12 437.475
BEESAT 3 31 Jan 09:04:09 09:06:29 15° 42° (NE) 09:08:54 437.485
UWE-3 31 Jan 09:04:45 09:08:05 21° 92° (E) 09:11:27 435.000/436.395/437.385
Oscar 11 31 Jan 09:07:04 09:11:04 37° 97° (E) 09:15:05 145.826/435.025
CINEMA 3 31 Jan 09:07:55 09:12:34 49° 98° (E) 09:17:02 145.822/145.860
POPSAT HIP 1 31 Jan 09:09:37 09:12:48 21° 68° (ENE) 09:16:06 437.405
DUCHIFAT 1 31 Jan 09:10:55 09:14:06 21° 68° (ENE) 09:17:26 145.980
UNISAT 6 31 Jan 09:18:18 09:22:48 47° 73° (ENE) 09:27:19 437.425
SEEDS 31 Jan 09:25:31 09:29:31 43° 287° (WNW) 09:33:27 437.485
VELOX 1 31 Jan 09:34:13 09:36:51 16° 91° (E) 09:39:39 145.980
GOMX 1 31 Jan 09:35:45 09:40:43 38° 290° (WNW) 09:45:25 467.674
DOVE 4 31 Jan 09:37:25 09:42:24 47° 288° (WNW) 09:47:05 437.250
UKube-1 31 Jan 09:43:31 09:47:48 51° 100° (E) 09:52:03 .
NANOSAT C BR1 31 Jan 09:44:58 09:49:06 51° 74° (ENE) 09:53:18 145.865
HUMSAT D 31 Jan 09:48:42 09:52:19 28° 95° (E) 09:55:56 437.325/437.525
SO-50 31 Jan 09:48:54 09:53:28 75° 303° (WNW) 09:58:12 436.795
COMPASS 1 31 Jan 09:49:10 09:52:47 28° 289° (WNW) 09:56:18 437.405
BRITE-PL 31 Jan 09:52:22 09:56:38 22° 295° (WNW) 10:00:37 437.365/2234.400
ANTELSAT 31 Jan 09:54:15 09:58:58 73° 258° (WSW) 10:03:41 437.575/2403.000
DELFI C3 31 Jan 09:55:44 09:59:46 70° 284° (WNW) 10:03:46 145.870
PHONESAT 2.4 31 Jan 09:59:30 10:03:07 78° 355° (N) 10:06:45 2401.200-2431.200
QB50P2 31 Jan 10:00:27 10:04:44 80° 76° (ENE) 10:09:04 145.880/145.840
TIGRISAT 31 Jan 10:00:42 10:05:22 64° 259° (W) 10:10:03 435.000
ZACube-1 31 Jan 10:02:47 10:07:13 79° 101° (E) 10:11:30 437.345
CUBEBUG 2 31 Jan 10:05:06 10:09:39 68° 285° (WNW) 10:14:00 437.445
DX 1 31 Jan 10:06:57 10:11:23 82° 283° (WNW) 10:15:47 434.975-435.025
QB50P1 31 Jan 10:08:59 10:13:16 83° 257° (WSW) 10:17:36 145.935-145.965
BUGSAT 1 31 Jan 10:09:01 10:13:07 74° 76° (ENE) 10:17:18 437.445
CANX-2 31 Jan 10:12:04 10:13:39 12° 295° (WNW) 10:15:00 2200.000
FUNcube-1 31 Jan 10:13:59 10:18:25 79° 284° (WNW) 10:22:41 145.935
AAUSAT CUBESAT 2 31 Jan 10:14:22 10:17:14 18° 292° (WNW) 10:19:57 437.432
POLYITAN 1 31 Jan 10:25:26 10:29:39 53° 260° (W) 10:33:54 437.675
VERMONT LUNAR 31 Jan 10:25:31 10:29:01 81° 4° (N) 10:32:32 437.305
HO-68 31 Jan 10:26:22 10:32:06 26° 299° (WNW) 10:37:37 435.675
BEESAT 2 31 Jan 10:29:08 10:33:20 81° 58° (ENE) 10:37:27 435.950
GONETS M04 31 Jan 10:29:35 10:35:33 21° 63° (ENE) 10:41:55
AIST 2 31 Jan 10:36:50 10:40:53 40° 52° (NE) 10:44:54 435.215
50 SAT 31 Jan 10:39:12 10:43:16 83° 102° (ESE) 10:47:16 437.505
UWE-3 31 Jan 10:40:44 10:44:46 33° 289° (WNW) 10:48:38 435.000/436.395/437.385
BEESAT 3 31 Jan 10:40:58 10:45:06 65° 241° (WSW) 10:49:08 437.485
AIST 1 31 Jan 10:42:08 10:46:20 65° 95° (E) 10:50:35
AISAT 31 Jan 10:42:12 10:46:45 89° 284° (WNW) 10:51:16 437.250
Oscar 11 31 Jan 10:43:59 10:47:02 19° 292° (WNW) 10:49:57 145.826/435.025
POPSAT HIP 1 31 Jan 10:44:40 10:48:33 32° 264° (W) 10:52:25 437.405
DUCHIFAT 1 31 Jan 10:45:59 10:49:49 32° 264° (W) 10:53:40 145.980
CINEMA 3 31 Jan 10:46:13 10:49:23 17° 295° (WNW) 10:52:19 145.822/145.860
ESTCUBE 1 31 Jan 10:52:19 10:56:44 50° 99° (E) 11:01:09 437.505/2401.250
UNISAT 6 31 Jan 10:56:43 10:59:53 17° 269° (W) 11:02:52 437.425
RS-15 31 Jan 11:04:31 11:13:37 28° 29° (NNE) 11:23:16 29.354- 29.394
VELOX 1 31 Jan 11:09:25 11:13:44 46° 287° (WNW) 11:18:02 145.980
CUBEBUG 1 31 Jan 11:10:36 11:15:04 75° 102° (ESE) 11:19:30 437.445
TISAT 1 31 Jan 11:17:02 11:20:06 19° 93° (E) 11:23:16 437.305
UKube-1 31 Jan 11:21:05 11:23:35 15° 295° (WNW) 11:25:54 .
NANOSAT C BR1 31 Jan 11:23:16 11:25:22 13° 270° (W) 11:27:15 145.865
HUMSAT D 31 Jan 11:24:39 11:28:02 23° 291° (WNW) 11:31:17 437.325/437.525
SO-50 31 Jan 11:32:55 11:34:57 12° 324° (NW) 11:36:51 436.795
PHONESAT 2.4 31 Jan 11:38:07 11:41:45 81° 195° (SSW) 11:45:24 2401.200-2431.200
Oscar 19 31 Jan 11:53:39 11:58:20 36° 70° (ENE) 12:03:06 437.125/150
PCSat 31 Jan 11:54:14 11:58:53 29° 50° (NE) 12:03:35 145.827
VERMONT LUNAR 31 Jan 12:03:42 12:07:03 41° 202° (SSW) 12:10:22 437.305
ITAMSAT 1 31 Jan 12:16:02 12:19:47 21° 65° (ENE) 12:23:42 435.822/435.867
AIST 2 31 Jan 12:16:12 12:19:16 19° 249° (WSW) 12:22:09 435.215
SPROUT 31 Jan 12:22:48 12:27:09 71° 285° (WNW) 12:31:28 437.525
GONETS M04 31 Jan 12:24:54 12:33:37 81° 265° (W) 12:42:18
ESTCUBE 1 31 Jan 12:30:27 12:33:16 16° 294° (WNW) 12:35:55 437.505/2401.250
SWISSCUBE 31 Jan 12:45:25 12:49:34 30° 95° (E) 12:53:48 437.505
CUBEBUG 1 31 Jan 12:49:42 12:50:54 11° 297° (WNW) 12:51:51 437.445
TISAT 1 31 Jan 12:52:08 12:56:03 34° 289° (WNW) 12:59:54 437.305
BEESAT 31 Jan 13:00:32 13:05:00 39° 98° (E) 13:09:29 436.000
ITUPSAT 1 31 Jan 13:05:52 13:10:27 43° 99° (E) 13:15:01 437.325
RS-15 31 Jan 13:16:49 13:28:15 79° 57° (ENE) 13:40:13 29.354- 29.394
PHONESAT 2.4 31 Jan 13:16:59 13:20:04 26° 208° (SSW) 13:23:08 2401.200-2431.200
CUSAT 1 31 Jan 13:21:01 13:23:45 14° 56° (NE) 13:26:25 437.405
Gurwin Techsat 1B 31 Jan 13:25:21 13:30:34 63° 74° (ENE) 13:35:51 435.225
HORYU 2 31 Jan 13:31:59 13:35:19 21° 67° (ENE) 13:38:45 437.375
Oscar 19 31 Jan 13:33:24 13:37:47 26° 266° (W) 13:42:05 437.125/150
PCSat 31 Jan 13:37:22 13:42:28 41° 248° (WSW) 13:47:30 145.827
ITAMSAT 1 31 Jan 13:54:01 13:59:00 47° 261° (W) 14:04:00 435.822/435.867
STARS 31 Jan 14:07:51 14:11:30 25° 95° (E) 14:15:11 437.465
AO-7 31 Jan 14:17:05 14:24:53 47° 64° (ENE) 14:32:47 29.400- 29.500
KKS-1 31 Jan 14:19:10 14:23:34 52° 100° (E) 14:27:56 437.445
SWISSCUBE 31 Jan 14:23:19 14:27:24 28° 291° (WNW) 14:31:25 437.505
GONETS M04 31 Jan 14:24:54 14:29:14 14° 282° (WNW) 14:32:57
BEESAT 31 Jan 14:38:58 14:42:39 22° 293° (WNW) 14:46:12 436.000
JAS-2 31 Jan 14:41:34 14:45:23 21° 66° (ENE) 14:49:16 435.910
ITUPSAT 1 31 Jan 14:44:34 14:48:04 20° 294° (WNW) 14:51:27 437.325
DANDE 31 Jan 14:45:56 14:52:19 70° 77° (ENE) 14:56:58 436.750
O/OREOS (USA 219) 31 Jan 15:01:40 15:05:50 40° 106° (ESE) 15:10:06 437.305
CUSAT 1 31 Jan 15:02:11 15:08:00 67° 265° (W) 15:12:15 437.405
HORYU 2 31 Jan 15:07:38 15:11:48 36° 263° (W) 15:15:56 437.375
Gurwin Techsat 1B 31 Jan 15:07:56 15:11:06 15° 271° (W) 15:14:00 435.225
RS-15 31 Jan 15:30:30 15:39:49 28° 255° (WSW) 15:48:56 29.354- 29.394
M-CUBED/EXP-1 PRIME 31 Jan 15:33:43 15:37:04 81° 110° (ESE) 15:40:33 437.505
STARS 31 Jan 15:44:07 15:47:59 28° 290° (WNW) 15:51:44 437.465
KKS-1 31 Jan 15:57:10 15:59:50 15° 295° (WNW) 16:02:20 437.445
AUBIESAT-1 31 Jan 16:04:59 16:08:09 41° 291° (WNW) 16:11:27 437.475
AO-7 31 Jan 16:10:05 16:17:49 39° 262° (W) 16:25:28 29.400- 29.500
MOZHAYETS 4 31 Jan 16:16:08 16:20:23 38° 97° (E) 16:24:39
Cubesat XI-IV 31 Jan 16:17:41 16:21:43 23° 66° (ENE) 16:25:54 437.490
JAS-2 31 Jan 16:25:05 16:30:20 45° 261° (W) 16:35:18 435.910
DANDE 31 Jan 16:31:57 16:34:31 13° 282° (WNW) 16:36:32 436.750
